KD9BEW Weather Reports


Display with metric or nautical units.
time (UTC)temp
F
wind
direction
speed
MPH
gust
MPH
rain 1hr
in
rain 24hr
in
rain mn
in
humidity
%
barometer
mb
20260507090056 38 0 1.0 4.0 0.00 0.00 0.00 67 1011.6
20260507084551 38 192 1.0 3.0 0.00 0.00 0.00 67 1011.6
20260507083056 38 140 0.0 3.0 0.00 0.00 0.00 67 1011.5
20260507081557 38 156 0.0 2.0 0.00 0.00 0.00 67 1011.7
20260507080054 38 164 1.0 3.0 0.00 0.00 0.00 67 1011.7
20260507074556 38 169 0.0 2.0 0.00 0.00 0.00 67 1011.8
20260507073057 38 167 0.0 3.0 0.00 0.00 0.00 67 1011.9
20260507071558 38 0 1.0 3.0 0.00 0.00 0.00 67 1011.9
20260507064557 38 0 0.0 1.0 0.00 0.00 0.00 67 1012.2
20260507063056 38 0 0.0 0.0 0.00 0.00 0.00 68 1012.2
20260507061603 38 0 0.0 1.0 0.00 0.00 0.00 67 1012.3
20260507060104 39 0 0.0 1.0 0.00 0.00 0.00 65 1012.5
20260507054602 39 0 0.0 3.0 0.00 0.00 0.00 65 1012.5
20260507053058 39 0 0.0 0.0 0.00 0.00 0.00 66 1012.7
20260507051552 39 0 0.0 1.0 0.00 0.00 0.00 65 1012.8
20260507050055 39 0 0.0 2.0 0.00 0.00 0.00 64 1013.0
20260507044600 39 0 0.0 4.0 0.00 0.00 0.00 63 1013.0
20260507043058 39 0 0.0 1.0 0.00 0.00 0.00 63 1013.0
20260507041552 39 205 0.0 2.0 0.00 0.00 0.00 62 1013.2
20260507040055 40 0 0.0 1.0 0.00 0.00 0.00 62 1013.2
20260507034608 40 0 0.0 3.0 0.00 0.00 0.00 61 1013.3
20260507033055 40 142 0.0 1.0 0.00 0.00 0.00 61 1013.4
20260507031553 40 0 0.0 0.0 0.00 0.00 0.00 61 1013.4
20260507024558 40 0 0.0 2.0 0.00 0.00 0.00 58 1013.5
20260507023055 41 0 0.0 2.0 0.00 0.00 0.00 58 1013.3
20260507021557 41 0 0.0 5.0 0.00 0.00 0.00 58 1013.3
20260507020055 41 0 0.0 1.0 0.00 0.00 0.00 57 1013.3
20260507014559 41 163 0.0 1.0 0.00 0.00 0.00 56 1013.1
20260507013100 41 0 0.0 2.0 0.00 0.00 0.00 55 1013.2
20260507011557 42 0 1.0 5.0 0.00 0.00 0.00 55 1013.2
20260507010057 42 173 0.0 3.0 0.00 0.00 0.00 54 1013.2
20260507004553 42 260 0.0 5.0 0.00 0.00 0.00 54 1013.1
20260507003054 42 178 1.0 6.0 0.00 0.00 0.00 53 1013.1
20260507001558 42 265 0.0 2.0 0.00 0.00 0.00 55 1013.1
20260507000057 42 281 2.0 7.0 0.00 0.00 0.00 53 1013.1
20260506234556 43 323 1.0 7.0 0.00 0.00 0.00 54 1013.2
20260506233102 43 288 1.0 8.0 0.00 0.00 0.00 54 1013.3
20260506231554 43 300 2.0 9.0 0.00 0.00 0.00 54 1013.3
20260506230057 43 275 3.0 8.0 0.00 0.00 0.00 54 1013.2
20260506224602 44 234 3.0 7.0 0.00 0.00 0.00 54 1013.2
20260506223055 43 0 2.0 10.0 0.00 0.00 0.00 54 1013.0
20260506221556 43 262 2.0 6.0 0.00 0.00 0.00 53 1013.1
20260506220057 44 260 2.0 7.0 0.00 0.00 0.00 53 1013.2
20260506214608 44 138 1.0 9.0 0.00 0.00 0.00 54 1013.1
20260506213054 44 259 3.0 9.0 0.00 0.00 0.00 54 1013.2
20260506211556 43 333 3.0 9.0 0.00 0.00 0.00 53 1013.2
20260506210055 43 289 0.0 4.0 0.00 0.00 0.00 53 1013.2
20260506204610 43 262 1.0 9.0 0.00 0.00 0.00 52 1013.3
20260506203055 43 240 1.0 8.0 0.00 0.00 0.00 54 1013.4
20260506201557 42 264 2.0 7.0 0.00 0.00 0.00 54 1013.4
20260506200055 42 296 2.0 8.0 0.00 0.00 0.00 54 1013.6
20260506194606 42 253 2.0 9.0 0.00 0.00 0.00 54 1013.6
20260506193058 42 322 1.0 8.0 0.00 0.00 0.00 53 1013.6
20260506191555 42 242 2.0 6.0 0.00 0.00 0.00 53 1013.6
20260506190056 41 246 2.0 15.0 0.00 0.00 0.00 53 1013.6
20260506184556 41 163 3.0 6.0 0.00 0.00 0.00 54 1013.7
20260506183106 41 321 3.0 7.0 0.00 0.00 0.00 53 1013.6
20260506181553 41 290 3.0 9.0 0.00 0.00 0.00 53 1013.6
20260506180058 41 191 2.0 9.0 0.00 0.00 0.00 53 1013.7
20260506174559 41 152 3.0 8.0 0.00 0.00 0.00 53 1013.7
20260506173057 41 287 2.0 7.0 0.00 0.00 0.00 54 1013.7
20260506171603 41 335 2.0 8.0 0.00 0.00 0.00 53 1013.7
20260506170107 41 267 2.0 9.0 0.00 0.00 0.00 53 1013.7
20260506164600 41 269 2.0 8.0 0.00 0.00 0.00 53 1013.8
20260506163105 41 152 4.0 8.0 0.00 0.00 0.00 55 1013.9
20260506161606 40 284 3.0 9.0 0.00 0.00 0.00 56 1014.0
20260506160055 40 15 2.0 7.0 0.00 0.00 0.00 55 1014.0
20260506154610 40 333 2.0 6.0 0.00 0.00 0.00 54 1014.1
20260506153053 40 290 1.0 7.0 0.00 0.00 0.00 54 1013.8
20260506151556 40 31 1.0 6.0 0.00 0.00 0.00 54 1013.8
20260506144605 40 260 2.0 8.0 0.00 0.00 0.00 55 1014.0
20260506143058 39 242 2.0 11.0 0.00 0.00 0.00 58 1014.0
20260506141603 38 207 3.0 9.0 0.00 0.00 0.00 61 1014.1
20260506140114 37 309 3.0 8.0 0.00 0.00 0.00 62 1014.0
20260506134558 37 273 2.0 6.0 0.00 0.00 0.00 64 1014.1
20260506133110 36 184 3.0 9.0 0.00 0.00 0.00 65 1014.0
20260506131601 36 280 0.0 4.0 0.00 0.00 0.00 65 1013.8
20260506130104 35 266 2.0 4.0 0.00 0.00 0.00 66 1013.9
20260506124558 35 261 0.0 6.0 0.00 0.00 0.00 68 1013.8
20260506123056 34 277 2.0 7.0 0.00 0.00 0.00 67 1013.7
20260506121555 34 0 0.0 6.0 0.00 0.00 0.00 68 1013.5
20260506120058 34 253 1.0 4.0 0.00 0.00 0.00 67 1013.3
20260506114600 33 207 0.0 6.0 0.00 0.00 0.00 67 1013.0
20260506113059 33 159 0.0 3.0 0.00 0.00 0.00 66 1012.8
20260506111605 33 254 0.0 4.0 0.00 0.00 0.00 65 1012.7
20260506110056 33 277 2.0 6.0 0.00 0.00 0.00 62 1012.7
20260506104601 34 277 1.0 4.0 0.00 0.00 0.00 61 1012.5
20260506103100 34 272 1.0 6.0 0.00 0.00 0.00 60 1012.5
20260506101558 35 0 2.0 7.0 0.00 0.00 0.00 63 1012.4
20260506100059 36 244 2.0 7.0 0.00 0.00 0.00 65 1012.5
20260506094555 36 240 0.0 6.0 0.00 0.00 0.00 64 1012.3
20260506093102 36 0 0.0 1.0 0.00 0.00 0.00 65 1012.2
20260506091601 36 0 0.0 2.0 0.00 0.00 0.00 64 1012.0